Regional Weather Roundup
Issued by NWS Cleveland, OH

Home | Current Version | Previous Version | Graphics & Text | Print | Product List | Glossary On
Versions: 1 2 3 4 5 6 7 8 9 10 11 12 13 14 15 16 17 18 19 20 21 22 23 24 25 26 27 28 29 30 31 32 33 34 35 36 37 38 39 40 41 42 43 44 45 46 47 48 49 50
000
ASUS41 KCLE 210102
RWRCLE
OHIO REGIONAL WEATHER ROUNDUP
NATIONAL WEATHER SERVICE CLEVELAND, OH
900 PM EDT MON OCT 20 2014

NOTE: "FAIR" INDICATES FEW OR NO CLOUDS BELOW 12,000 FEET WITH NO
SIGNIFICANT WEATHER AND/OR OBSTRUCTIONS TO VISIBILITY.

OHZ001>008-015>018-024>027-034-035-043-044-210200-
   NORTHWEST OHIO

CITY           SKY/WX    TMP DP  RH WIND       PRES   REMARKS
DEFIANCE       CLOUDY    54  50  86 CALM      29.88R
FINDLAY        MOCLDY    52  50  93 W6        29.85S FOG
TOLEDO EXPRESS MOCLDY    49  49 100 W5        29.85S FOG
TOLEDO EXEC    PTCLDY    51  48  89 W5        29.86R
LIMA           CLOUDY    54  51  90 W6        29.87R
$$

OHZ009>014-019>023-028>033-038-089-210200-
   NORTHEAST OHIO

CITY           SKY/WX    TMP DP  RH WIND       PRES   REMARKS
CLE-HOPKINS    LGT RAIN  52  51  97 W7        29.87S FOG
CLE-LAKEFRONT  RAIN      53  51  93 SW9       29.84S
CUY CO. ARPT   LGT RAIN  54  54 100 W14       29.85R
LORAIN-ELYRIA  CLOUDY    52  51  97 CALM      29.85F FOG
ASHTABULA      LGT RAIN  50  47  89 S9        29.84F
AKRON-CANTON   CLOUDY    52  48  86 SW7       29.86F
WOOSTER        LGT RAIN  53  49  86 SW7       29.87R FOG
MANSFIELD      CLOUDY    51  50  96 SW7       29.86S
YOUNGSTOWN     LGT RAIN  50  47  89 S6        29.86S FOG
$$

OHZ042-051>053-060>062-070>072-077>081-210200-
  SOUTHWEST OHIO

CITY           SKY/WX    TMP DP  RH WIND       PRES   REMARKS
CINC-COVINGTON PTCLDY    58  50  75 SW7       29.89S
CINC-LUNKEN    CLEAR     54  50  86 CALM      29.89S
HAMILTON       PTCLDY    53  51  93 CALM      29.89R
DAYTON         MOCLDY    53  51  93 W6        29.88S
WRIGHT-PAT AFB PTCLDY    53  50  87 S3        29.87R
DAYTON GENERAL HVY RAIN  57  53  86 N6        29.88R FOG
WILMINGTON     MOCLDY    51  47  86 S3        29.88S
$$

OHZ036-037-039>041-045>050-054>059-063>069-073>076-082>088-210200-
  CENTRAL AND SOUTHEAST OHIO

CITY           SKY/WX    TMP DP  RH WIND       PRES   REMARKS
COLUMBUS       CLOUDY    53  50  89 SE3       29.87S
OSU AIRPORT    CLOUDY    53  50  89 S5        29.87S
BOLTON FIELD   MOCLDY    51  50  97 CALM      29.87F
RICKENBACK AFB CLOUDY    51  49  92 S5        29.87S
NEWARK         CLOUDY    52  49  89 SW5       29.86F
MARION         CLOUDY    53  50  89 SW6       29.86S
LANCASTER      CLOUDY    52  49  89 S5        29.88F
ZANESVILLE     LGT RAIN  50  48  93 SE6       29.88F
NEW PHILLY     CLOUDY    52  48  86 S3        29.88S
$$



USA.gov is the U.S. government's official web portal to all federal, state and local government web resources and services.